Torna al catalogo

KUIPER-00015

AttivoComunicazioniLEO
NORAD 63731·PAYLOAD·🇺🇸 United States

Lanciato Apr 28, 2025 da Cape Canaveral Space Force Station

Loading…

Prossimi Passaggi (prossime 24 ore)

TLE

AggiornatoSource: CelesTrak SupGP

Epoca: Sep 15, 2026, 01:33 UTC

1 63731C 25088H   26258.06498843  .00001540  00000+0  20158-3 0  2584
2 63731  51.9000   0.6942 0000318 112.9413 287.9369 14.79930932    13

Traccia KUIPER-00015 in tempo reale con AllMySat

Download on the App Store